Weather History for Piney Island, NC

Change the Weather History Date:

Friday, April 5, 2013

  Actual Average (KMRH) Record (KMRH)
Temperature  
Mean Temperature 56 °F -  
Max Temperature 64 °F 68 °F 82 °F (1988)
Min Temperature 48 °F 50 °F 31 °F (1975)
Degree Days  
Heating Degree Days 9    
Growing Degree Days 6 (Base 50)    
Moisture  
Dew Point 47 °F    
Average Humidity 83    
Maximum Humidity 93    
Minimum Humidity 72    
Precipitation  
Precipitation 0.25 in - - ()
Sea Level Pressure  
Sea Level Pressure 29.88 in    
Wind  
Wind Speed 14 mph (NW)    
Max Wind Speed 21 mph    
Max Gust Speed 30 mph    
Visibility 9 miles    
Events Rain    
Averages and records for this station are not official NWS values.
T = Trace of Precipitation, MM = Missing Value Source: NWS Daily Summary

Daily Weather History Graph

Daily Weather History Graph

Search for Another Location

Airport:

Trip Planner

Search our weather history database for the weather conditions in past years. The results will help you decide how hot, cold, wet, or windy it might be!

Date:

Astronomy

Apr. 05, 2013 Rise Set
Actual Time 6:46 AM EDT 7:30 PM EDT
Civil Twilight 6:21 AM EDT 7:56 PM EDT
Nautical Twilight 5:51 AM EDT 8:26 PM EDT
Astronomical Twilight 5:20 AM EDT 8:57 PM EDT
Moon 3:41 AM EDT (4/5) 3:02 PM EDT (4/5)
Length of Visible Light 13h 34m
Length of Day
12h 43m
Waning Crescent, 24% of the Moon is Illuminated
Apr 5
Waning Crescent
Apr 10
New
Apr 18
First Quarter
Apr 25
Full
May 2
Last Quarter

Hourly Weather History & Observations

Time (EDT) Temp. Dew Point Humidity Pressure Visibility Wind Dir Wind Speed Gust Speed Precip Events Conditions
12:56 AM 64.0 °F - N/A% 29.75 in 6.0 mi SSE 20.7 mph 29.9 mph 0.24 in Rain Light Rain
1:56 AM 64.0 °F - N/A% 29.73 in 7.0 mi SSW 11.5 mph - 0.01 in   Overcast
2:56 AM 63.0 °F - N/A% 29.72 in 9.0 mi SW 15.0 mph - N/A   Overcast
3:56 AM 57.9 °F - N/A% 29.75 in 2.5 mi West 18.4 mph 26.5 mph N/A   Overcast
4:56 AM 53.1 °F - N/A% 29.78 in 10.0 mi West 15.0 mph - N/A   Overcast
5:56 AM 50.0 °F - N/A% 29.81 in 10.0 mi WNW 13.8 mph - N/A   Overcast
6:56 AM 48.0 °F 46.0 °F 93% 29.83 in 10.0 mi NW 18.4 mph 24.2 mph N/A   Overcast
7:56 AM 48.0 °F 46.0 °F 93% 29.86 in 10.0 mi NW 12.7 mph 21.9 mph N/A   Overcast
8:56 AM 48.9 °F 46.9 °F 93% 29.89 in 10.0 mi NNW 13.8 mph - N/A   Overcast
9:56 AM 51.1 °F 46.9 °F 86% 29.88 in 10.0 mi North 17.3 mph 21.9 mph N/A   Overcast
10:56 AM 52.0 °F 48.0 °F 86% 29.91 in 10.0 mi North 15.0 mph - N/A   Overcast
11:56 AM 53.1 °F 48.0 °F 83% 29.92 in 10.0 mi North 11.5 mph - N/A   Overcast
1:56 PM 52.0 °F 46.0 °F 80% 29.92 in 10.0 mi NNW 13.8 mph - N/A   Overcast
2:56 PM 52.0 °F 46.0 °F 80% 29.92 in 10.0 mi NNW 9.2 mph - N/A   Overcast
3:56 PM 53.1 °F 46.0 °F 77% 29.91 in 10.0 mi NW 8.1 mph - N/A   Overcast
4:56 PM 54.0 °F 46.0 °F 75% 29.90 in 10.0 mi NNW 8.1 mph - N/A   Scattered Clouds
5:56 PM 55.0 °F 46.0 °F 72% 29.92 in 10.0 mi NW 9.2 mph - N/A   Clear
6:56 PM 55.9 °F 46.9 °F 72% 29.93 in 10.0 mi NNW 5.8 mph - N/A   Clear
7:56 PM 53.1 °F 46.9 °F 80% 29.96 in 10.0 mi NW 5.8 mph - N/A   Clear
8:56 PM 53.1 °F 48.9 °F 86% 29.99 in 10.0 mi NNW 3.5 mph - N/A   Clear
9:56 PM 54.0 °F 48.9 °F 83% 30.01 in 10.0 mi NNW 3.5 mph - N/A   Clear
10:56 PM 52.0 °F 48.9 °F 89% 30.01 in 10.0 mi NW 3.5 mph - N/A   Clear
11:56 PM 53.1 °F 50.0 °F 89% 30.02 in 10.0 mi WNW 6.9 mph - N/A   Clear